Weather observations for the past three days for
Laughlin Air Force Base Auxiliary Airfield
Metric (Imperial)
Date Time (cdt) Wind (kph) Vis. (km) Weather Sky Cond. Temperature (ºC) Relative Humidity Wind Chill (°C) Heat Index (°C) Pressure Precipitation (cm)
Air Dwpt 6 hour altimeter (cm) sea level (mb) 1 hr 3 hr 6 hr
Max. Min.
08 17:55 NE 6 16.09 A Few Clouds FEW033 27.1 18.1 58% 28 75.46 1005.0
08 16:55 Calm 16.09 A Few Clouds FEW029 26.5 18.1 60% 27 75.49 1005.4
08 15:55 Calm 16.09 Overcast OVC028 25.2 17.9 64% 26 75.57 1006.5
08 14:55 SE 9 16.09 Overcast OVC022 24.5 17.5 65% 26 75.64 1007.5
08 13:55 S 7 16.09 Overcast OVC019 23.1 17.3 70% 75.67 1007.9
08 12:55 SE 6 16.09 Overcast OVC014 21.9 17.2 21.9 18 75% 75.74 1009.0
08 11:55 SE 15 16.09 Overcast OVC013 21.3 17.3 78% 75.82 1010.1
08 10:55 SE 17 16.09 Overcast BKN013 OVC021 20.4 16.8 80% 75.84 1010.4
08 09:55 E 15 16.09 Overcast OVC009 18.8 16 84% 75.9 1011.2
08 08:55 E 22 16.09 Overcast OVC007 18 16 88% 75.92 1011.5
08 07:55 E 15 16.09 Overcast OVC014 18 15.8 87% 75.87 1010.8
08 06:55 E 13 16.09 Overcast OVC014 18.1 15.9 18.2 17.6 87% 75.87 1010.8
08 05:55 E 9 9.66 Fog/Mist OVC013 18.1 16.1 88% 75.87 1010.8
08 04:55 E 7 9.66 Fog/Mist FEW009 OVC017 17.9 16.2 90% 75.87 1010.9
08 03:55 Calm 16.09 Overcast OVC017 17.8 16.3 91% 75.92 1011.5
08 02:55 NE 6 16.09 Overcast OVC017 17.7 16 90% 75.92 1011.5
08 01:55 Calm 16.09 Overcast OVC020 17.8 15.8 88% 75.97 1012.2
08 00:55 Calm 16.09 Overcast OVC020 17.6 15.6 17.9 17.1 88% 76 1012.5
07 23:55 Calm 16.09 Overcast OVC018 17.7 15.7 88% 76 1012.5
07 22:55 Calm 16.09 Overcast OVC020 17.4 15.6 89% 76.02 1012.9
07 21:55 NW 9 16.09 Overcast OVC016 17.3 15.6 90% 76.02 1012.9
07 19:55 Calm 16.09 Overcast OVC018 17.2 15.2 88% 76 1012.5
07 18:55 N 9 16.09 Overcast FEW005 OVC019 17.2 15.5 18 16.6 90% 76 1012.5 0.13
07 17:55 N 11 16.09 Overcast BKN004 OVC022 17 15.5 91% 76.02 1012.8
07 16:55 N 11 3.62 Thunderstorm Light Rain in Vicinity OVC004 16.7 15.6 93% 76.07 1013.5 0.08
07 15:55 N 13 12.87 Light Rain OVC005 17.3 16 92% 76.05 1013.1 0.05 0.05
07 14:55 Calm 14.48 Overcast BKN005 OVC012 17.2 15.5 90% 76.15 1014.5
07 13:55 N 9 16.09 Overcast OVC009 17.9 15 83% 76.17 1014.8
07 12:55 NE 11 16.09 Overcast OVC008 17.5 14.9 20.9 16.2 85% 76.17 1014.8
07 11:55 NE 17 16.09 Overcast BKN007 OVC027 16.9 15.2 90% 76.17 1014.8
07 10:55 N 17 12.87 Light Rain Fog/Mist OVC005 16.3 15 92% 76.2 1015.1
07 09:55 N 22 12.87 Overcast OVC009 17.2 15.7 91% 76.12 1014.0
07 08:55 N 20 8.05 Fog/Mist OVC008 19.6 17.5 88% 76.1 1013.5
07 07:55 Calm 16.09 Overcast OVC011 20.7 16.9 79% 76.05 1012.7
07 06:55 E 7 16.09 Thunderstorm Light Rain OVC014 20.7 16.5 22.4 20.7 77% 75.97 1011.6
07 05:55 E 9 16.09 Overcast OVC016 20.9 16.1 74% 75.95 1011.3
07 04:55 NE 11 16.09 Overcast OVC014 21.1 16.1 73% 75.92 1011.0
07 03:55 E 9 16.09 Overcast OVC014 21.2 16.6 75% 75.92 1011.0
07 02:55 E 11 16.09 Mostly Cloudy BKN020 21.2 16.6 75% 75.95 1011.4
07 01:55 NE 6 16.09 Mostly Cloudy FEW032 BKN200 21.4 16.6 74% 75.95 1011.4
07 00:55 E 11 16.09 Partly Cloudy FEW037 SCT220 22.5 16.7 30.7 22.3 70% 75.92 1011.0
06 23:55 E 13 16.09 A Few Clouds FEW049 22.7 17.6 73% 75.92 1011.0
06 22:55 NE 7 16.09 Partly Cloudy SCT190 23.1 18.2 74% 75.79 1009.4
06 21:55 NE 11 16.09 Fair CLR 25 17.7 64% 26 75.74 1008.6
06 20:55 E 9 16.09 Mostly Cloudy BKN210 27 17.7 57% 28 75.72 1008.2
06 19:55 E 19 16.09 Partly Cloudy SCT210 29.2 16 45% 29 75.64 1007.2
06 18:55 NE 19 16.09 Fair CLR 30.8 14 31.4 28.6 36% 30 75.59 1006.4
06 17:55 NE 19 16.09 Fair CLR 31 15.4 39% 31 75.54 1005.7
06 16:55 NE 24 16.09 A Few Clouds FEW210 31.3 14.8 37% 31 75.54 1005.7
06 15:55 N 15 16.09 Partly Cloudy FEW180 SCT220 30.3 17 45% 31 75.59 1006.4
06 14:55 N 20 16.09 A Few Clouds FEW200 29.5 20.3 58% 32 75.62 1006.7
06 13:55 N 15 16.09 Partly Cloudy FEW110 FEW140 SCT190 29.4 20.8 60% 32 75.67 1007.4
06 12:55 N 20 16.09 Partly Cloudy SCT016 28.7 20.9 28.7 24.5 63% 31 75.72 1008.2
06 11:55 N 22 G 30 16.09 Overcast BKN011 OVC019 26.6 22.6 79% 29 75.74 1008.6
06 10:55 E 6 11.27 Overcast OVC007 25.1 23.1 89% 26 75.69 1008.0
06 09:55 E 11 16.09 Overcast OVC007 25.1 22.6 86% 26 75.64 1007.2
06 08:55 SE 19 12.87 Overcast SCT007 OVC019 24.9 22.6 87% 26 75.57 1006.1
06 07:55 SE 15 16.09 Mostly Cloudy BKN016 24.7 22.4 87% 25 75.54 1005.7
06 06:55 SE 17 16.09 Overcast BKN009 OVC020 24.5 22.2 27 24.5 87% 25 75.49 1005.0
06 05:55 SE 15 16.09 Overcast OVC010 24.8 22.3 86% 25 75.49 1005.0
06 04:55 E 17 16.09 Overcast OVC012 25 22.3 85% 26 75.46 1004.7
06 03:55 E 24 16.09 Light Rain OVC013 25.4 22.5 84% 27 75.44 1004.4
06 02:55 E 22 16.09 Fair CLR 25.4 22.3 83% 27 75.41 1004.0
06 01:55 E 24 16.09 Partly Cloudy SCT095 26.2 22.2 79% 28 75.44 1004.4
06 00:55 E 11 16.09 Overcast OVC100 25.5 21.3 32.2 24.6 78% 27 75.41 1004.1
05 23:55 NE 11 16.09 Fair CLR 24.9 20.8 78% 26 75.41 1004.1
05 22:55 NE 9 16.09 Fair CLR 25.7 20.7 74% 27 75.39 1003.8
05 21:55 E 7 16.09 Fair CLR 26.8 20.1 67% 28 75.34 1003.2
05 20:55 E 11 16.09 Fair CLR 28.3 20 61% 30 75.29 1002.5
05 19:55 E 13 16.09 Fair CLR 30.9 19.2 50% 32 75.23 1001.7
05 18:55 E 11 16.09 Fair CLR 31.8 18.4 32.5 28.4 45% 33 75.23 1001.7
Date Time (cdt) Wind (kph) Vis. (km) Weather Sky Cond. Air Dwpt Max. Min. Relative Humidity Wind Chill (°C) Heat Index (°C) altimeter (cm) sea level (mb) 1 hr 3 hr 6 hr
6 hour
Temperature (ºC) Pressure Precipitation (cm)